Location: Neuvy Saint Sepulchre
(46.5953°N, 1.8122°E)
Time: 19:06:03
(UTC+01:00)

BlueWalker 3 - Visible Passes

Search period start: 28 February 2024 00:00
Search period end: 09 March 2024 00:00
Orbit: 485 x 500 km, 53.2° (Epoch: 27 February)

Date Brightness Start Highest point End Pass type
(mag) Time Alt. Az. Time Alt. Az. Time Alt. Az.
28 Feb 2.9 19:47:39 10° NW 19:51:09 34° NNE 19:53:00 21° ENE visible
28 Feb 4.2 21:25:56 10° WNW 21:27:29 23° WNW 21:27:29 23° WNW visible
29 Feb 2.9 19:23:47 10° NW 19:27:17 34° NNE 19:30:13 13° ENE visible
29 Feb 3.0 21:02:04 10° WNW 21:04:42 43° WNW 21:04:42 43° WNW visible
01 Mar 1.8 20:38:11 10° WNW 20:41:58 83° SW 20:41:58 83° SW visible
02 Mar 1.8 20:14:18 10° WNW 20:18:05 85° SSW 20:19:16 42° SE visible
02 Mar 5.1 21:53:36 10° W 21:53:45 11° W 21:53:45 11° W visible
03 Mar 1.8 19:50:23 10° WNW 19:54:10 88° SW 19:56:38 21° ESE visible
03 Mar 4.6 21:29:38 10° W 21:31:08 15° WSW 21:31:08 15° WSW visible
04 Mar 1.9 19:26:28 10° WNW 19:30:15 90° SE 19:34:02 10° ESE visible
04 Mar 4.2 21:05:39 10° W 21:08:04 16° SW 21:08:37 16° SW visible
05 Mar 4.4 20:41:39 10° W 20:44:09 17° SW 20:46:12 12° SSW visible
06 Mar 4.4 20:17:38 10° W 20:20:13 18° SW 20:22:47 10° S visible
07 Mar 4.5 19:53:37 10° W 19:56:16 18° SW 19:58:54 10° S visible
08 Mar 4.5 19:29:35 10° W 19:32:18 19° SW 19:35:00 10° S visible
